Regional Weather Roundup
Issued by NWS

Home | Current Version | Previous Version | Text Only | Print | Product List | Glossary On
Versions: 1 2 3 4 5 6 7 8 9 10 11 12 13 14 15 16 17 18 19 20 21 22 23 24 25 26 27 28 29 30 31 32 33 34 35 36 37 38 39 40 41 42 43 44 45 46 47 48 49 50
000
ASUS46 KLOX 210402
RWRCA

SOUTHERN CALIFORNIA WEATHER ROUNDUP
NATIONAL WEATHER SERVICE OXNARD CALIFORNIA
900 PM PDT MON APR 20 2015

NOTE: "FAIR" INDICATES FEW OR NO CLOUDS BELOW 12,000 FEET WITH NO
SIGNIFICANT WEATHER AND/OR OBSTRUCTIONS TO VISIBILITY.

  -  STATIONS PRECEEDED BY AN ASTERISK (*) ARE NOT NWS OR FAA
     STATIONS AND ARE NOT SUBJECT TO NWS AND FAA QUALITY CONTROL.

CAZ041-042-087-210500-
LA AND ORANGE COUNTY COASTAL AREAS


CITY           SKY/WX    TMP DP  RH WIND       PRES   REMARKS
L.A. DOWNTOWN  CLEAR     59  52  77 VRB3      29.89R
L.A. AIRPORT   PTCLDY    58  52  80 W8        29.90R
LONG BEACH     CLEAR     60  51  72 NW8       29.89R

CITY           SKY/WX    TMP DP  RH WIND       PRES   REMARKS
AVALON           N/A     57 N/A N/A MISG        N/A
FULLERTON      CLEAR     60  32  34 S7        29.88R
*GETTY CENTER    N/A     52  50  93 SW6         N/A
HAWTHORNE      CLEAR     60  51  72 SW5       29.90R
*LEO CARRILLO    N/A     55  50  83 W7          N/A
*LOS ALAMITOS  FAIR      58  52  81 SW8       29.89R
*REDONDO BEACH   N/A     58  50  75 CALM      29.89R
SANTA ANA      PTCLDY    60  51  72 SW5       29.90R
STA MONICA APT CLOUDY    60  52  74 SW5       29.89R
*UCLA            N/A     55  50  82 W7        29.87R

$$

CAZ547-548-048-210500-
LA COUNTY VALLEYS AND INLAND EMPIRE


CITY           SKY/WX    TMP DP  RH WIND       PRES   REMARKS
BURBANK        CLEAR     58  50  75 S7        29.87R
VAN NUYS       CLEAR     58  50  75 SE8       29.87R

CITY           SKY/WX    TMP DP  RH WIND       PRES   REMARKS
CORONA AIRPORT LGT RAIN  58  49  72 W8        29.88R
*CHATSWORTH      N/A     60  48  62 E3        29.87R
CHINO          CLEAR     58  48  69 W12       29.89R
MARCH AFB      CLEAR     58  48  69 W5        29.89R
*NORTHRIDGE      N/A     59  46  63 E3G9        N/A
ONTARIO        CLEAR     59  48  67 W12       29.88R
*PASADENA        N/A     59  52  77 CALM        N/A
POMONA         CLEAR     57  48  72 SW7       29.91R
RIVERSIDE      CLEAR     59  49  69 W6        29.89R
SAN BERNARDINO CLEAR     59  46  63 SW7       29.89R
*SAN RAFAEL HI   N/A     54  46  73 E5          N/A
*SAUGUS          N/A     65  45  49 W7          N/A
*WHITEMAN AP   NOT AVBL
*WHITTIER HILL   N/A     56  50  81 SW3         N/A
*WOODLAND HILL   N/A     59  50  72 NE1         N/A

$$

CAZ054-055-210500-
LA AND SAN BERNARDINO COUNTY MOUNTAINS


CITY           SKY/WX    TMP DP  RH WIND       PRES   REMARKS
*BIG BEAR AIRP CLEAR     45  21  39 CALM      30.00R
MT WILSON NWS    N/A     50  16  25 S2          N/A
SANDBERG       CLEAR     53  34  48 SW9       29.92R

$$

CAZ028-029-059-060-099-210500-
ANTELOPE VALLEY AND SURROUNDING AREAS


CITY           SKY/WX    TMP DP  RH WIND       PRES   REMARKS
LANCASTER      CLEAR     61  39  44 SW15      29.82R
PALMDALE       CLEAR     63  34  33 SW8       29.84R

CITY           SKY/WX    TMP DP  RH WIND       PRES   REMARKS
29 PALMS       CLEAR     72  30  21 S9        29.84R
BARSTOW/DAGGET CLEAR     74  31  20 W20       29.75R
BISHOP         MOCLDY    71  23  16 CALM      29.83R
CHINA LAKE     CLEAR     72  29  20 SW6       29.72R
EDWARDS AFB    PTCLDY    65  33  30 SW15      29.79R
MOJAVE         FAIR      68  41  37 SW14      29.81R
NEEDLES        CLEAR     84  15   7 W13       29.71R
VICTORVILLE    CLEAR     64  34  32 S7        29.84R

$$

CAZ039-040-210500-
VENTURA AND SANTA BARBARA COUNTY COAST


CITY           SKY/WX    TMP DP  RH WIND       PRES   REMARKS
CAMARILLO      PTCLDY    57  50  77 W5        29.88R
NWS OXNARD       N/A     56  51  80 CALM      29.86R
OXNARD AIRPORT CLEAR     56  51  84 W9        29.87R
*POINT MUGU    PTCLDY    57  51  80 W3        29.89R
SBA APT/GOLETA PTCLDY    57  51  80 E5        29.85R
*SANTA BARBARA   N/A     58  50  74 CALM      29.93S
*VENTURA         N/A     57  51  79 SW3       29.90S

$$

CAZ044-045-210500-
VENTURA COUNTY VALLEYS


CITY           SKY/WX    TMP DP  RH WIND       PRES   REMARKS
*SIMI VALLEY     N/A     56  49  78 CALM      29.83S
*OJAI            N/A     54  48  78 CALM      29.83R
*FILLMORE        N/A     57  49  74 CALM      29.78R

$$

CAZ053-210500-
VENTURA COUNTY MOUNTAINS


CITY           SKY/WX    TMP DP  RH WIND       PRES   REMARKS
*LOCKWOOD VLY    N/A     54  36  50 MISG        N/A
*ROSE VALLEY     N/A     52  46  82 MISG        N/A

$$

CAZ034-035-036-210500-
CENTRAL COAST AND SANTA YNEZ VALLEY


CITY           SKY/WX    TMP DP  RH WIND       PRES   REMARKS
SAN LUIS OBISP MOCLDY    53  48  83 NW10      29.89R
SANTA MARIA    PTCLDY    54  48  80 W6        29.89R

CITY           SKY/WX    TMP DP  RH WIND       PRES   REMARKS
*CAL POLY SLO    N/A     55  50  82 NW6         N/A
*LOMPOC        CLOUDY    54  46  76 W7        29.90R
*PISMO BEACH     N/A     56  50  78 NW1       29.89R
*SANTA YNEZ    FAIR      54  46  76 W7        29.88R

$$

CAZ037-038-051-210500-
SAN LUIS OBISPO COUNTY INTERIOR AND CUYAMA VALLEY


CITY           SKY/WX    TMP DP  RH WIND       PRES   REMARKS
*CUYAMA          N/A     60  42  52 W3        29.77R
PASO ROBLES    PTCLDY    54  45  71 SW12      29.84R

$$

CAZ032-033-061-210500-
SOUTHERN DESERTS


CITY           SKY/WX    TMP DP  RH WIND       PRES   REMARKS
BLYTHE         CLEAR     82  23  11 SW10      29.71R
IMPERIAL       CLEAR     74  40  29 SW5       29.70R
PALM SPRINGS   CLEAR     77  46  33 NW17      29.73R
THERMAL        CLEAR     79  46  31 NW9       29.68R

$$

ELSEWHERE ACROSS THE WESTERN UNITED STATES AND MEXICO


CITY           SKY/WX    TMP DP  RH WIND       PRES   REMARKS
DENVER, CO     PTCLDY    42  35  76 S10       29.96S
GRAND CANYON,  PTCLDY    35  14  42 CALM      30.01R
HONOLULU, HI   MOSUNNY   79  60  52 NE21G30   30.03S
KAHULUI, MAUI  PTCLDY    75  63  66 NE22G31   30.03R
LAKE TAHOE, CA CLEAR     47  25  42 CALM      30.00R
LAS VEGAS, NV  PTCLDY    81  15   8 S17G23    29.69R
MAMMOTH LAKES, CLOUDY    52  21  30 W13       30.03R
MEXICO CITY, M PTCLDY    72  43  35 S6        30.25R
PHOENIX, AZ    PTCLDY    82  22  11 W6        29.71R
PORTLAND, OR   PTCLDY    68  44  42 NW9G17    29.81R
RENO, NV       MOCLDY    67  26  21 W7        29.90R
SALT LAKE CITY CLEAR     59  27  29 SE7       29.88R
SAN DIEGO, CA  MOCLDY    62  49  62 SW7       29.92R
SAN FRANCISCO, CLOUDY    56  51  84 W8        29.86R
SAN JOSE, CA   MOCLDY    57  49  74 NW8       29.86R
SEATTLE, WA    PTCLDY    62  37  39 NW3       29.85R
TIJUANA, MEX   PTCLDY    59  46  63 NW6       29.93R

$$

STATION/POSITION TIME  TEMP    WIND        PRES    VSBY  WAVE
                       AIR SEA DIR/SP/G                  HT/PER
                 (UTC) (F)     (DEG/KT/KT) (MB)    (MI)  (FT/S)
POINT ARGUELLO B NOT AVBL
WEST SANTA BARBA 0300   56 54  320/ 16/ 19 1010.6R         4/15
POINT CONCEPTION NOT AVBL
EAST SANTA BARBA NOT AVBL
SANTA MONICA BAY 0400   58 62  320/  4/  6 1012.0R         3/14



USA.gov is the U.S. government's official web portal to all federal, state and local government web resources and services.